Wind_Speed
5 5 5 6 6 6 6 6 6 6 8 9 11 11 12 13 14 13 11 10 11 11 11 11 10 10 10 10 10 10 8 9 9 9 9 9 9 10 10 9 10 11 10 10 13 13 14
7 7 7 8 9 9 9 9 9 9 9 9 11 13 13 13 13 14 15 14 13 13 12 13 12 12 12 12 11 12 12 10 11 11 12 12 11 11 12 11 11 10 12 12 13 14 14
12 12 11 10 10 11 12 13 14 14 13 12 11 12 14 14 15 15 16 16 16 15 15 15 14 14 13 12 12 13 13 14 14 14 14 15 14 13 13 12 14 13 12 13 15 15 17
13 15 16 16 15 15 14 15 16 16 17 17 16 14 15 15 15 15 16 17 19 18 17 17 16 18 17 16 14 14 15 16 17 17 16 17 17 16 16 15 12 11 14 15 15 17 19
16 14 16 18 18 18 19 19 18 19 19 18 18 18 18 18 18 18 16 17 19 21 20 19 19 19 21 18 17 16 16 16 16 17 18 18 18 17 18 16 15 15 13 15 16 17 20
19 18 18 18 19 20 20 22 22 22 23 22 20 19 18 19 19 19 20 18 19 22 23 22 21 20 18 19 17 16 13 14 16 17 17 18 19 20 20 19 17 14 17 18 17 14 18
20 18 19 21 22 22 22 22 23 24 24 25 25 23 22 21 19 19 20 22 20 22 25 23 22 24 24 23 22 20 20 20 20 20 20 20 22 25 18 17 19 19 15 15 14 17 18
27 22 20 23 23 23 22 23 25 25 24 24 24 25 26 24 23 20 20 20 21 24 28 27 28 27 26 26 27 25 24 23 23 24 24 24 27 19 21 21 20 21 21 19 15 15 17
31 28 26 26 25 25 26 27 25 26 26 25 25 26 25 26 25 24 22 20 19 23 28 31 32 32 31 30 30 29 26 26 25 25 25 26 23 18 20 23 22 22 23 21 17 15 17
30 31 30 31 31 28 28 29 29 27 27 27 26 26 26 25 25 24 23 22 19 20 21 28 31 28 26 25 27 28 29 25 24 21 21 19 26 26 21 19 20 21 19 19 18 15 10
30 31 30 31 32 32 33 31 30 28 26 26 28 26 25 25 26 25 24 23 19 16 6 11 16 17 16 13 13 15 19 22 21 19 18 14 15 19 23 21 18 17 15 14 14 15 16
32 33 32 32 31 32 32 31 30 31 34 33 28 28 28 26 27 26 24 22 19 8 10 9 14 12 13 13 17 17 15 17 17 18 19 20 15 14 15 18 17 15 14 12 12 13 7
36 36 34 34 32 32 31 33 31 34 33 36 36 31 28 32 29 29 25 21 13 10 9 12 20 21 20 19 18 20 18 19 18 16 22 21 22 22 18 17 18 20 15 3 3 3 6
39 39 39 38 38 36 35 34 33 33 34 33 34 35 34 33 32 33 27 22 18 13 24 30 28 18 16 15 18 20 25 26 26 24 14 18 12 25 24 27 21 23 24 10 6 4 2
41 41 41 40 39 39 38 37 36 35 33 34 35 35 36 33 33 33 34 29 20 25 32 31 28 30 32 28 24 20 25 32 31 29 24 15 15 19 22 23 26 20 26 25 10 8 4
42 42 43 43 42 42 41 39 37 36 35 33 36 36 39 36 32 34 40 45 32 29 36 28 27 22 24 22 24 24 24 14 23 34 29 19 12 17 22 24 27 28 19 11 13 4 6
38 39 40 42 44 43 43 41 38 37 34 33 31 34 38 32 32 33 42 48 48 43 37 26 32 36 34 31 31 31 28 27 25 24 24 35 27 14 23 27 32 31 29 18 13 9 5
31 33 35 39 42 42 43 42 39 38 34 33 33 29 31 30 30 35 40 40 43 42 41 41 49 51 42 33 37 38 40 34 27 22 29 30 22 22 31 25 27 34 35 37 23 10 13
33 32 33 34 36 38 40 40 38 36 32 32 37 38 39 37 37 37 45 44 37 39 40 45 49 43 46 46 38 45 44 43 38 35 29 30 24 11 8 22 29 34 40 40 43 34 32
32 33 31 31 31 32 34 36 34 33 31 30 32 33 31 29 32 35 35 40 42 38 35 35 44 48 49 49 47 27 35 37 32 36 37 33 37 31 27 20 15 33 43 45 43 29 32
32 32 32 31 28 28 28 30 30 28 28 27 31 31 31 27 30 16 20 29 36 38 37 33 36 41 41 50 45 52 46 44 37 35 39 41 42 39 44 38 31 32 31 31 44 50 30
33 32 31 30 27 25 25 25 25 26 26 29 30 29 31 33 38 47 43 39 27 26 28 35 32 30 32 41 45 43 35 47 46 35 40 43 32 31 32 31 32 33 26 24 33 35 46
32 32 29 28 29 26 25 24 25 26 25 28 31 31 32 34 32 32 33 31 35 39 45 28 26 26 29 29 30 40 39 42 44 37 42 36 39 36 30 29 26 29 43 44 46 45 41
31 28 26 28 30 28 26 24 27 26 25 26 28 25 27 30 28 35 38 36 34 32 34 36 29 26 28 28 28 26 26 31 36 38 36 39 39 28 16 13 6 18 22 22 28 39 43
30 28 27 27 28 27 26 24 24 26 25 27 26 26 27 33 35 32 33 29 29 27 28 34 28 22 16 19 20 16 17 20 27 32 39 40 36 24 13 17 24 22 19 15 13 15 19
28 25 26 27 29 27 27 25 22 25 25 25 26 24 22 28 32 28 30 28 26 25 26 29 21 20 23 18 11 6 6 5 5 7 26 32 30 28 14 6 7 7 6 10 13 17 16
27 25 26 26 28 28 27 25 23 25 23 21 26 25 23 26 33 34 33 25 24 26 28 23 23 25 26 20 13 11 11 12 6 7 8 21 26 28 19 9 8 15 12 10 7 6 6
23 23 24 25 24 24 25 26 24 29 21 19 22 22 23 25 28 27 26 29 27 28 24 29 30 23 19 16 9 10 10 9 9 16 10 11 12 17 19 9 12 14 14 11 9 7 8
18 20 21 22 22 23 22 21 23 26 27 26 24 22 20 23 24 24 25 24 21 18 19 21 23 25 19 16 12 8 9 7 10 6 12 8 11 5 10 8 10 6 7 8 11 10 9
Wind_Direction
301 291 275 256 248 238 237 243 265 280 297 305 307 309 311 313 312 306 303 302 302 304 312 317 319 310 293 279 265 257 263 248 239 243 251 253 258 264 256 251 251 251 245 230 220 222 219
287 277 275 278 281 277 276 274 264 269 274 284 294 300 302 303 306 306 305 304 302 304 304 303 306 305 299 287 276 263 251 249 247 249 253 258 257 257 258 261 253 252 243 235 230 225 224
302 297 289 278 271 273 278 279 285 286 278 277 279 287 295 300 301 303 304 305 302 299 297 297 298 297 292 287 278 268 257 250 248 255 255 256 255 253 254 253 251 249 247 241 233 230 230
306 307 302 298 293 286 280 278 282 282 285 289 287 286 291 293 293 292 297 299 299 296 294 292 294 290 286 281 277 272 266 258 253 254 255 255 254 252 250 248 251 246 244 240 245 241 238
310 307 307 306 304 302 300 295 289 288 288 285 286 288 288 289 289 290 287 291 295 296 293 290 287 286 284 278 270 269 267 263 257 254 255 255 255 251 249 248 249 243 244 240 243 245 244
305 311 312 310 310 307 305 303 300 300 297 292 288 286 282 283 287 291 294 290 290 292 290 288 287 283 275 274 270 268 269 271 269 265 260 255 252 251 249 245 242 250 245 250 246 253 241
317 302 301 307 310 309 309 306 303 301 301 302 299 294 292 290 288 289 290 292 295 292 287 283 276 272 273 273 269 269 271 272 271 268 262 260 255 255 267 260 252 254 252 256 254 247 250
298 306 305 307 303 301 301 303 305 303 299 297 296 297 297 297 297 294 291 292 294 292 290 285 281 275 271 269 268 264 263 264 265 263 259 255 257 261 252 250 247 247 249 249 247 245 252
295 295 295 290 297 300 304 305 305 301 299 298 298 296 295 295 296 296 293 292 294 294 291 285 283 279 269 264 261 260 259 259 261 258 256 252 254 253 248 246 245 245 246 248 251 255 258
294 294 294 295 292 289 291 301 303 304 302 297 296 296 297 294 293 293 293 291 295 302 297 285 278 269 266 260 259 257 256 253 253 255 249 253 246 247 246 246 241 244 247 249 252 254 253
295 294 295 294 293 292 289 286 292 297 299 299 295 294 297 295 293 290 290 290 291 299 319 276 252 261 260 247 256 259 250 247 244 246 238 239 242 240 240 242 235 239 243 245 250 249 257
289 290 291 290 290 291 290 288 288 288 290 295 296 294 293 296 293 287 284 284 283 271 254 271 256 257 253 257 253 250 243 238 236 234 237 236 238 238 234 232 228 234 236 245 253 251 249
290 290 289 290 288 288 286 285 282 282 285 287 289 287 293 290 287 285 280 274 258 214 270 276 263 265 262 259 253 244 244 237 223 213 229 232 235 240 239 230 226 226 221 229 273 207 231
286 286 287 288 288 286 284 284 282 281 278 280 281 279 284 283 287 284 270 259 232 234 246 258 276 277 265 261 257 247 240 238 229 226 232 217 230 232 235 231 235 226 218 207 220 210 246
281 280 278 276 275 275 275 276 278 279 278 276 277 278 277 273 273 277 276 242 242 251 257 257 265 273 273 267 251 246 245 248 243 237 226 223 229 226 226 226 223 217 217 233 248 275 292
278 276 275 272 272 271 271 270 271 273 274 275 276 276 271 275 272 270 269 260 248 252 253 256 266 265 266 268 249 246 249 251 252 245 238 239 239 237 224 222 220 221 221 199 203 201 244
283 278 270 267 268 268 268 268 268 268 271 272 273 274 279 282 274 270 261 268 274 271 250 260 264 259 262 265 267 259 252 257 255 254 247 237 240 232 224 223 223 216 213 212 212 214 199
283 282 279 274 269 268 267 267 267 268 269 268 268 265 273 268 273 266 269 276 279 278 275 250 251 256 261 264 261 257 257 259 259 256 250 238 233 233 243 238 234 230 238 232 218 219 220
286 286 286 283 280 274 268 268 264 265 267 272 271 269 268 273 271 267 270 277 282 280 279 276 264 264 257 255 266 263 264 264 260 254 252 242 227 220 234 239 235 232 234 233 232 239 241
283 285 285 284 285 283 276 269 267 265 266 268 269 267 268 271 271 275 280 282 280 288 287 278 275 270 258 256 252 251 255 260 256 246 240 236 236 236 237 248 234 227 240 236 231 231 236
282 281 280 283 288 291 280 273 263 259 261 262 258 261 264 266 276 260 293 294 298 291 288 287 291 290 287 264 261 250 245 251 253 244 234 226 231 240 245 248 248 246 248 242 234 242 228
277 275 273 274 277 286 287 270 260 254 252 253 249 257 263 265 264 281 281 286 300 309 294 296 282 290 288 276 272 266 263 253 243 243 242 231 237 250 251 248 247 248 237 231 244 243 245
273 271 269 267 268 272 280 273 263 251 249 250 259 259 257 263 271 278 276 277 295 295 294 302 289 290 283 291 286 273 270 265 262 260 241 234 239 248 259 258 268 275 253 248 252 252 252
270 268 267 263 267 267 272 277 265 256 249 249 256 259 252 266 260 267 279 285 289 293 297 292 291 285 285 289 286 288 273 265 259 257 254 247 241 230 246 246 233 260 261 257 253 254 257
271 269 262 262 267 267 270 275 268 261 254 251 251 249 245 252 263 272 279 284 288 295 286 291 292 286 292 293 289 293 277 269 259 254 248 244 245 232 223 208 255 256 260 261 241 247 255
266 266 261 260 264 265 268 268 265 255 257 255 249 247 246 248 266 270 276 283 282 292 290 304 311 301 308 287 275 234 252 264 260 250 238 232 231 223 207 205 220 223 231 243 250 259 254
265 264 255 262 263 261 263 266 260 254 233 248 247 246 245 241 252 265 269 281 288 292 298 296 307 308 305 287 247 232 241 251 250 250 234 216 216 215 220 225 258 250 258 253 227 261 237
266 262 258 260 261 264 265 262 250 243 243 245 255 257 253 254 260 266 262 271 278 284 284 283 304 305 305 257 251 237 230 235 247 251 255 233 204 211 220 228 254 245 241 236 243 252 238
258 261 258 256 259 263 263 257 243 236 238 243 244 251 263 254 258 271 277 278 276 275 286 287 281 288 285 286 273 260 251 251 257 266 261 235 218 232 210 216 234 259 260 264 246 226 216
Height
3172 3172 3171 3170 3169 3168 3168 3167 3168 3167 3168 3168 3168 3166 3166 3165 3164 3163 3162 3160 3159 3158 3157 3156 3154 3153 3152 3152 3152 3151 3151 3151 3151 3152 3153 3153 3153 3153 3153 3154 3153 3153 3154 3154 3155 3156 3156
3171 3170 3170 3170 3170 3170 3169 3168 3166 3166 3165 3164 3165 3165 3165 3163 3162 3161 3160 3159 3157 3155 3154 3153 3152 3151 3150 3150 3150 3149 3149 3149 3149 3150 3150 3151 3151 3152 3151 3150 3151 3151 3152 3153 3153 3154 3155
3171 3171 3170 3169 3167 3167 3167 3167 3168 3167 3164 3163 3162 3161 3161 3160 3159 3158 3157 3156 3155 3153 3151 3150 3149 3149 3148 3148 3147 3147 3146 3146 3146 3147 3147 3148 3148 3149 3149 3149 3148 3148 3149 3149 3150 3151 3151
3170 3170 3169 3168 3167 3166 3165 3164 3164 3164 3164 3163 3161 3158 3157 3156 3155 3154 3153 3153 3152 3151 3149 3147 3146 3146 3144 3144 3143 3143 3144 3143 3143 3143 3144 3144 3144 3145 3146 3146 3146 3147 3147 3146 3146 3146 3147
3169 3168 3168 3168 3166 3165 3164 3163 3161 3160 3160 3158 3157 3156 3154 3153 3152 3151 3149 3148 3148 3148 3146 3144 3143 3143 3141 3140 3140 3139 3140 3140 3140 3140 3140 3141 3141 3142 3143 3143 3144 3143 3142 3142 3142 3142 3142
3167 3167 3166 3165 3164 3163 3162 3161 3160 3159 3158 3157 3155 3153 3150 3150 3149 3148 3147 3144 3142 3143 3143 3141 3139 3141 3138 3137 3136 3135 3135 3136 3136 3136 3136 3137 3137 3137 3138 3139 3139 3138 3138 3137 3138 3138 3137
3164 3163 3163 3164 3163 3161 3160 3159 3158 3157 3156 3155 3154 3151 3149 3147 3145 3144 3144 3143 3142 3140 3137 3137 3136 3134 3133 3133 3132 3132 3132 3131 3131 3132 3132 3132 3132 3131 3134 3135 3134 3135 3134 3133 3133 3133 3133
3160 3160 3159 3159 3158 3157 3156 3156 3155 3153 3152 3151 3150 3148 3147 3146 3144 3142 3140 3139 3137 3136 3130 3129 3128 3127 3126 3126 3126 3126 3127 3128 3126 3126 3126 3128 3125 3129 3128 3129 3129 3129 3129 3130 3130 3129 3129
3156 3156 3156 3155 3154 3153 3152 3152 3150 3150 3149 3148 3146 3144 3143 3142 3142 3141 3138 3135 3133 3130 3125 3122 3120 3119 3119 3119 3117 3118 3120 3119 3119 3119 3120 3120 3122 3122 3122 3123 3124 3124 3125 3126 3128 3126 3125
3151 3150 3149 3149 3149 3149 3147 3146 3146 3145 3144 3143 3141 3140 3140 3139 3140 3137 3135 3133 3130 3127 3121 3116 3112 3109 3110 3110 3110 3110 3111 3114 3113 3114 3115 3115 3115 3116 3118 3118 3120 3120 3121 3122 3122 3123 3122
3145 3145 3144 3143 3142 3142 3141 3141 3140 3139 3138 3137 3136 3135 3133 3134 3134 3132 3132 3130 3128 3128 3125 3110 3106 3104 3105 3107 3106 3104 3105 3106 3107 3109 3111 3110 3110 3110 3111 3114 3115 3117 3117 3118 3118 3117 3117
3137 3137 3136 3136 3135 3135 3134 3134 3134 3134 3134 3132 3130 3130 3128 3129 3128 3126 3125 3125 3126 3128 3119 3107 3103 3101 3101 3101 3101 3101 3102 3102 3103 3104 3104 3105 3106 3107 3107 3109 3111 3112 3114 3115 3114 3113 3111
3128 3128 3127 3126 3126 3126 3126 3126 3126 3126 3125 3124 3124 3124 3123 3122 3122 3121 3120 3120 3122 3117 3113 3106 3101 3099 3099 3097 3096 3097 3099 3098 3099 3099 3098 3099 3100 3102 3103 3105 3106 3107 3110 3112 3112 3110 3101
3119 3118 3118 3118 3117 3117 3116 3116 3116 3116 3117 3115 3114 3116 3115 3115 3114 3115 3115 3115 3109 3103 3103 3101 3102 3100 3097 3096 3094 3092 3093 3093 3093 3093 3093 3093 3094 3093 3094 3096 3099 3099 3103 3103 3102 3101 3095
3108 3107 3106 3105 3104 3104 3105 3106 3106 3106 3105 3105 3104 3104 3103 3106 3107 3108 3108 3102 3095 3098 3101 3097 3096 3094 3094 3093 3091 3088 3085 3085 3086 3088 3090 3087 3086 3084 3086 3088 3093 3093 3094 3097 3096 3094 3094
3094 3094 3094 3093 3094 3093 3094 3095 3097 3096 3096 3097 3095 3094 3091 3096 3098 3098 3097 3086 3088 3093 3095 3093 3090 3089 3086 3087 3085 3083 3081 3078 3078 3081 3082 3082 3081 3080 3081 3082 3085 3085 3086 3090 3092 3092 3090
3081 3081 3081 3081 3081 3082 3083 3085 3086 3086 3089 3089 3087 3084 3081 3085 3087 3088 3081 3076 3079 3086 3088 3088 3084 3081 3080 3079 3079 3075 3072 3073 3074 3074 3074 3076 3076 3075 3074 3072 3072 3075 3076 3079 3081 3078 3075
3069 3068 3068 3068 3069 3070 3072 3073 3076 3076 3081 3081 3079 3080 3074 3078 3079 3073 3072 3072 3073 3072 3076 3071 3070 3072 3073 3073 3069 3066 3063 3067 3069 3069 3067 3067 3065 3063 3066 3064 3065 3066 3067 3069 3069 3068 3065
3060 3061 3060 3059 3058 3059 3061 3063 3066 3067 3071 3074 3071 3070 3067 3070 3068 3064 3066 3065 3064 3063 3065 3061 3058 3059 3062 3061 3063 3056 3056 3057 3060 3060 3060 3060 3056 3056 3055 3057 3054 3053 3052 3057 3059 3059 3052
3051 3050 3051 3050 3051 3050 3050 3052 3056 3060 3062 3063 3063 3059 3060 3060 3061 3058 3059 3056 3055 3053 3053 3052 3049 3051 3048 3046 3049 3042 3044 3047 3049 3049 3050 3049 3045 3040 3037 3038 3037 3038 3039 3043 3048 3047 3042
3044 3043 3043 3041 3042 3042 3041 3042 3045 3051 3052 3054 3054 3051 3052 3050 3053 3051 3050 3049 3049 3047 3046 3044 3039 3040 3040 3034 3033 3031 3031 3035 3038 3037 3037 3037 3031 3030 3029 3030 3030 3029 3029 3031 3030 3030 3035
3037 3036 3034 3033 3034 3035 3034 3035 3036 3039 3043 3042 3043 3046 3046 3045 3045 3044 3045 3044 3042 3042 3040 3037 3030 3031 3028 3025 3025 3024 3021 3021 3022 3025 3027 3025 3023 3021 3021 3021 3021 3020 3020 3020 3021 3024 3021
3028 3026 3028 3026 3025 3027 3027 3028 3029 3030 3033 3032 3034 3036 3037 3035 3036 3038 3036 3035 3036 3035 3032 3030 3026 3019 3018 3017 3016 3015 3014 3013 3013 3014 3015 3017 3018 3018 3013 3015 3015 3013 3004 3011 3012 3012 3016
3017 3018 3020 3020 3018 3019 3020 3020 3021 3022 3024 3026 3026 3028 3029 3026 3028 3029 3029 3028 3028 3029 3023 3024 3019 3013 3013 3009 3005 3006 3004 3002 3002 3005 3007 3005 3008 3010 3006 3010 3011 2998 2998 2999 2999 3001 3002
3009 3008 3010 3014 3013 3011 3013 3012 3013 3014 3016 3018 3020 3021 3021 3018 3019 3021 3022 3021 3021 3020 3018 3015 3012 3008 3004 3002 2997 2999 2996 2993 2990 2992 2995 2998 2999 3001 3000 2998 2993 2992 2991 2993 2992 2996 2997
3000 3000 3001 3005 3006 3005 3005 3005 3006 3008 3009 3010 3013 3013 3015 3012 3013 3015 3014 3014 3014 3012 3011 3009 3006 3003 2999 2994 2990 2992 2993 2989 2987 2984 2985 2987 2988 2996 2995 2992 2990 2986 2984 2983 2986 2990 2990
2993 2992 2993 2997 2998 2998 2998 2998 2999 2999 2999 3002 3005 3007 3007 3006 3007 3008 3007 3009 3009 3007 3005 3004 3002 2999 2995 2991 2988 2984 2986 2987 2984 2983 2984 2982 2982 2985 2988 2986 2983 2985 2983 2982 2986 2989 2986
2984 2985 2987 2989 2990 2991 2990 2991 2992 2993 2996 2997 2998 3000 3001 3000 3000 3000 3001 3001 3002 3001 3000 2999 2998 2994 2990 2987 2985 2982 2981 2981 2978 2981 2980 2978 2978 2980 2985 2985 2984 2980 2979 2982 2982 2981 2983
2977 2979 2982 2982 2983 2983 2983 2982 2984 2987 2990 2991 2993 2994 2995 2995 2995 2994 2994 2995 2996 2996 2995 2994 2993 2991 2990 2988 2986 2981 2978 2976 2974 2977 2977 2979 2976 2976 2976 2974 2974 2975 2975 2975 2977 2980 2980